Flag for Uruguay Weather past 2 weeks in Maldonado, Uruguay

Now
48 °F

Clear.


Feels Like: 45 °F
Forecast: N/A
Wind: 7 mph from North

Location: Capitan Corbeta

Current Time: Jul 7, 2015 at 7:48:09 PM

Latest Report: Jul 7, 2015 at 7:00 PM


Visibility: 10 mi

Pressure: 30.15 "Hg

Humidity: 87%

Dew point: 45 °F

Location of MaldonadoLocation

Historic Weather in Maldonado — Graph

°F

Maldonado temperature yesterday

Maximum temperature yesterday: 61 °F (at 2:00 PM)
Minimum temperature yesterday: 41 °F (at 10:00 PM)
Average temperature yesterday: 51 °F

Past Weeks' High & Low Weather Summary

 TemperatureHumidityPressure
High73 °F (Jun 27, 1:00 PM)100% (Jun 24, 2:00 AM)30.51 "Hg (Jun 24, 2:00 AM)
Low30 °F (Jun 24, 6:00 AM)44% (Jul 5, 3:00 PM)29.74 "Hg (Jun 30, 6:00 AM)
Average52 °F78%30.14 "Hg
* Reported Jun 22 6:00 PM — Jul 7 6:00 PM, Maldonado, Weather by CustomWeather, © 2015

Note: Actual official high and low records may vary slightly from our data, if they occured in-between our weather recording intervals... More about our weather records

Advertising

Maldonado weather history for previous 24 hours

 ConditionsComfort  
Time TempWeatherWind HumidityBarometerVisibility
6:00 PM
Tue, Jul 7
48 °FClear.No wind82%30.12 "Hg10 mi
5:00 PM54 °FClear.10 mph72%30.12 "Hg10 mi
4:00 PM63 °FSunny.6 mph49%30.12 "Hg10 mi
3:00 PM63 °FSunny.5 mph49%30.12 "Hg10 mi
2:00 PM59 °FSunny.No wind59%30.12 "Hg10 mi
1:00 PM57 °FSunny.5 mph94%30.15 "Hg10 mi
12:00 PM50 °FFog.10 mph94%30.15 "Hg5 mi
11:00 AM45 °FFog.13 mph93%30.15 "Hg0 mi
10:00 AM45 °FFog.No wind93%30.15 "Hg0 mi
9:00 AM43 °FFog.6 mph93%30.12 "Hg0 mi
8:00 AM39 °FFog.6 mph93%30.12 "Hg0 mi
7:00 AM39 °FFog.5 mph93%30.09 "Hg0 mi
6:00 AM39 °FFog.No wind93%30.09 "Hg0 mi
5:00 AM39 °FFog.No wind93%30.09 "Hg0 mi
4:00 AM37 °FFog.5 mph93%30.09 "Hg0 mi
3:00 AM37 °FFog.6 mph93%30.09 "Hg0 mi
2:00 AM41 °FFog.No wind93%30.12 "Hg0 mi
1:00 AM39 °FFog.6 mph93%30.12 "Hg0 mi
12:00 AM39 °FFog.No wind93%30.09 "Hg1 mi
11:00 PM
Mon, Jul 6
41 °FFog.No wind87%30.07 "Hg1 mi
10:00 PM41 °FFog.5 mph87%30.07 "Hg0 mi
9:00 PM45 °FFog.7 mph87%30.07 "Hg1 mi
8:00 PM46 °FPassing clouds.9 mph87%30.07 "HgN/A
7:00 PM48 °FPassing clouds.No wind82%30.04 "HgN/A
Weather by CustomWeather, © 2015

See weather overviewHow to use our weather pages